CAPE
5 8 6 24 24 28 21 0 1 1 0 nan nan nan nan nan nan nan nan nan nan nan nan nan nan nan nan nan nan nan nan nan 0 0 0 nan nan nan nan nan nan nan nan 0 0 2 6 8 8 7 6 3 nan nan nan nan nan nan nan nan nan nan nan nan nan nan nan nan nan nan 1 2 2 2 2 1 0 0 0 1 1 1 3 4 4 9
1 3 3 nan nan 1 7 nan 2 2 2 nan nan nan nan nan nan nan nan nan nan nan nan nan nan nan nan nan nan nan nan nan nan nan nan nan nan nan nan nan nan nan nan nan nan nan 1 5 5 5 5 0 nan nan nan nan nan nan nan nan nan nan nan nan nan nan nan nan 1 1 2 3 2 2 2 0 0 0 0 1 1 2 4 4 4 13
4 2 2 nan nan 1 6 nan nan nan 1 0 nan nan nan nan nan nan nan nan nan nan nan nan nan nan nan nan nan nan nan nan nan nan nan nan nan nan nan nan nan nan nan nan nan nan nan 0 0 2 4 nan nan nan nan nan nan nan nan nan nan nan nan nan nan nan nan nan 1 1 3 2 2 2 0 0 nan nan 0 0 0 1 4 6 6 15
15 19 8 2 2 nan 2 0 nan nan nan nan nan nan nan nan nan nan nan nan nan nan nan nan nan nan nan nan nan nan nan nan nan nan nan nan nan nan nan nan nan nan nan nan nan nan nan nan nan nan 0 nan nan nan nan nan nan nan nan nan nan nan nan nan nan nan nan nan 1 1 1 1 0 0 nan nan 0 0 0 1 1 1 3 6 6 17
27 56 23 8 8 6 1 1 nan nan nan nan nan nan nan nan nan nan nan nan nan nan nan nan nan nan nan nan nan nan nan nan nan nan nan nan nan nan nan nan nan nan nan nan nan nan nan nan nan nan nan nan nan nan nan nan nan nan nan nan nan nan nan nan nan nan nan nan 0 0 0 0 nan nan nan nan 0 0 0 1 1 1 2 8 8 17
15 25 28 29 29 16 8 1 0 0 nan nan nan nan nan nan nan nan nan nan nan nan nan nan nan nan nan nan nan nan nan nan nan nan nan nan nan nan nan nan nan nan nan nan nan nan nan nan nan nan nan nan nan nan nan nan nan nan nan nan nan nan nan nan nan nan nan nan nan nan nan nan nan nan nan nan 0 0 0 1 1 2 3 8 8 15
29 19 19 39 39 29 15 6 1 1 nan nan nan nan nan nan nan nan nan nan nan nan nan nan nan nan nan nan nan nan nan nan nan nan nan nan nan nan nan nan nan nan nan nan nan nan nan nan nan nan nan nan nan nan nan nan nan nan nan nan nan nan 0 nan nan nan nan nan nan nan nan nan nan nan nan nan 0 0 0 1 1 2 3 7 7 14
73 46 69 90 90 72 65 10 3 3 3 9 10 10 20 nan nan nan nan nan nan nan nan nan nan nan nan nan nan nan nan nan nan nan nan nan nan nan nan nan nan nan nan nan nan nan nan nan nan nan nan nan nan nan nan nan nan nan nan 0 0 1 2 2 2 1 1 1 1 1 0 0 nan nan nan nan 0 0 0 1 1 3 3 6 6 11
83 100 102 105 105 75 91 32 2 2 1 6 10 10 42 28 nan nan nan nan nan nan nan nan nan nan nan nan nan nan nan nan nan nan nan nan nan nan nan nan nan nan nan nan nan nan nan nan nan nan nan nan nan nan nan nan nan 0 0 1 1 1 2 4 4 5 4 4 3 3 2 0 nan nan nan nan nan nan 0 1 1 3 4 7 7 13
193 216 184 126 126 84 106 72 12 12 0 5 10 10 14 18 5 5 nan nan nan nan nan nan nan nan nan nan nan nan nan nan nan nan nan nan nan nan nan nan nan nan nan nan nan nan nan nan nan nan nan nan nan nan nan 0 0 0 1 1 1 2 3 6 6 8 8 6 6 6 4 2 1 1 0 nan 0 0 1 2 2 3 6 9 9 15
170 196 189 159 159 82 89 83 22 22 1 6 8 8 6 3 2 2 nan nan nan nan nan nan nan nan nan nan nan nan nan nan nan nan nan nan nan nan nan nan nan nan nan nan nan nan nan nan nan nan nan nan nan nan nan nan nan nan 0 1 1 3 4 8 8 11 10 10 10 10 6 4 2 2 1 1 1 1 1 2 2 3 7 10 10 13
137 159 188 175 175 131 107 51 1 1 nan 7 13 13 7 0 2 2 0 nan nan nan nan nan nan nan nan nan nan nan nan nan nan nan nan nan nan nan nan nan nan nan nan 0 0 nan nan nan nan nan nan nan nan nan nan nan nan nan 0 1 1 3 6 10 10 11 13 14 12 12 9 7 4 4 3 3 3 3 3 3 3 5 8 11 11 11
149 159 184 171 171 157 129 106 47 47 14 27 26 26 12 0 1 1 3 nan nan nan nan nan nan nan nan nan nan nan nan nan nan nan nan nan nan nan nan nan nan nan nan nan nan nan nan nan nan nan nan nan nan nan nan nan nan nan 0 2 2 5 8 10 10 11 13 15 15 15 12 9 8 8 8 6 5 5 4 4 4 6 10 11 11 11
139 175 172 154 154 168 119 110 104 104 63 45 22 22 6 nan 1 1 2 0 0 nan nan nan nan nan nan nan nan nan nan nan nan nan nan nan nan nan nan nan nan nan nan nan nan nan nan nan nan nan nan nan nan nan nan nan nan 0 1 4 4 7 9 10 10 12 14 16 15 15 14 13 13 13 12 9 7 7 5 6 6 8 10 10 10 10
103 118 95 74 74 94 89 63 50 50 44 29 15 15 11 2 1 1 1 1 1 nan nan nan nan nan nan nan nan nan nan nan nan nan nan nan nan nan nan nan nan nan nan nan nan nan nan nan nan nan nan nan nan nan nan nan nan 0 4 7 7 9 11 11 11 13 16 17 17 17 17 16 16 16 14 11 8 8 7 8 8 9 10 9 9 9
81 95 76 71 71 69 73 51 36 36 32 18 23 23 18 12 2 2 1 1 1 nan nan nan nan nan nan nan nan nan nan nan nan nan nan nan nan nan nan nan nan nan nan nan nan nan nan nan nan nan nan nan nan nan nan 2 2 3 7 10 10 12 11 13 13 15 18 20 21 21 21 19 17 17 14 10 8 8 8 9 9 10 10 8 8 9
85 79 70 65 65 59 66 77 83 83 77 72 76 76 48 33 7 7 3 0 0 nan nan nan nan nan nan nan nan nan nan nan nan nan nan nan nan nan nan nan nan nan nan nan nan nan nan nan nan nan nan nan nan nan 0 2 2 7 10 13 13 13 14 16 16 18 22 23 27 27 25 19 17 17 13 8 9 9 9 10 10 10 9 9 9 12
73 67 70 68 68 58 56 83 108 108 129 133 144 144 94 57 12 12 0 nan nan nan nan nan nan nan nan nan nan nan nan nan nan nan nan nan nan nan nan nan nan nan nan nan nan nan nan nan nan nan nan nan 0 0 2 4 4 9 13 15 15 15 16 18 18 22 25 30 31 31 24 19 15 15 11 8 8 8 10 10 10 9 9 10 10 14
58 59 69 82 82 85 78 85 107 107 138 142 132 132 85 44 9 9 1 nan nan nan nan nan nan nan nan nan nan nan nan nan nan nan nan nan nan nan nan nan nan nan nan nan nan nan nan nan nan nan nan 0 2 2 4 8 8 13 16 17 17 16 19 21 21 25 30 36 34 34 26 19 13 13 9 8 9 9 9 9 9 8 10 12 12 17
51 55 57 73 73 71 80 95 95 95 122 147 126 126 74 47 33 33 4 nan nan nan nan nan nan nan nan nan nan nan nan nan nan nan nan nan nan nan nan nan nan nan nan nan nan nan nan nan nan nan 1 0 4 4 8 11 11 16 16 16 16 18 19 24 24 29 33 37 32 32 24 18 11 11 9 9 8 8 9 8 8 9 11 16 16 19
56 56 59 72 72 58 73 53 70 70 88 118 76 76 47 59 58 58 27 nan nan nan nan nan nan nan nan nan nan nan nan nan nan nan nan nan nan nan nan nan nan nan nan nan nan nan nan nan nan nan 1 3 5 5 10 13 13 15 14 15 15 18 22 26 26 32 37 38 32 32 23 17 12 12 10 10 8 8 9 8 8 10 14 16 16 20
58 57 45 58 58 85 88 72 47 47 54 45 9 9 17 26 35 35 25 2 2 nan nan nan nan nan nan nan nan nan nan nan nan nan nan nan nan nan nan nan nan nan nan nan nan nan nan nan nan nan 0 9 8 8 13 14 14 13 14 14 14 17 22 30 30 36 40 35 30 30 21 17 14 14 11 9 9 9 9 11 11 13 14 18 18 20
40 40 36 42 42 62 111 139 134 134 114 35 4 4 10 10 6 6 14 1 1 nan nan nan nan nan nan nan nan nan nan nan nan nan nan nan nan nan nan nan nan nan nan nan nan nan nan nan nan nan 0 11 9 9 12 12 12 10 13 14 14 18 24 30 30 38 41 34 25 25 20 17 14 14 10 10 11 11 12 13 13 14 16 19 19 21
26 26 28 32 32 42 55 95 141 141 160 151 110 110 67 45 29 29 24 17 17 nan nan nan nan nan nan nan nan nan nan nan nan nan nan nan nan nan nan nan nan nan nan nan nan nan nan nan nan nan nan 8 9 9 10 10 10 10 13 15 15 20 27 34 34 38 37 30 21 21 18 15 13 13 10 10 12 12 13 14 14 16 17 19 19 20
16 22 29 27 27 32 37 38 44 44 53 87 93 93 110 91 78 78 83 7 7 nan nan nan nan nan nan nan nan nan nan nan nan nan nan nan nan nan nan nan nan nan nan nan nan nan nan nan nan nan nan nan 7 7 10 9 9 11 14 16 16 24 31 34 34 35 30 23 19 19 16 17 12 12 10 11 13 13 13 16 16 18 17 18 18 20
16 20 23 27 27 33 33 33 32 32 33 36 33 33 31 28 12 12 nan nan nan nan nan nan nan nan nan nan nan nan nan nan nan nan nan nan nan nan nan nan nan nan nan nan nan nan nan nan nan nan nan nan 8 8 8 10 10 12 16 21 21 25 31 31 31 28 22 18 16 16 15 13 11 11 11 12 13 13 14 15 15 17 16 17 17 17
28 33 37 35 35 32 29 29 31 31 28 25 22 22 17 13 2 2 nan nan nan nan nan nan nan nan nan nan nan nan nan nan nan nan nan nan nan nan nan nan nan nan nan nan nan nan nan nan nan nan nan nan 3 3 10 12 12 15 20 23 23 25 27 24 24 22 18 15 15 15 15 14 13 13 13 14 13 13 14 14 14 15 15 15 15 15
23 25 26 25 25 21 18 17 20 20 21 22 19 19 14 4 0 0 nan nan nan nan nan nan nan nan nan nan nan nan nan nan nan nan nan nan nan nan nan nan nan nan nan nan nan 0 2 nan nan nan nan nan nan nan 6 14 14 20 23 25 25 22 20 19 19 19 15 14 15 15 16 15 15 15 14 14 14 14 14 14 14 15 14 7 7 nan
11 13 14 13 13 12 10 13 17 17 18 20 18 18 11 2 1 1 nan nan nan nan nan nan nan nan nan nan nan nan nan nan nan nan nan nan nan nan nan nan nan nan nan nan nan nan nan nan nan nan nan nan nan nan 1 20 20 24 27 23 23 20 20 19 19 17 16 18 18 18 18 17 16 16 15 14 13 13 15 16 16 16 11 2 2 nan
8 8 8 7 7 8 9 11 15 15 18 18 14 14 12 5 5 5 2 nan nan nan nan nan nan nan nan nan nan nan nan nan nan nan nan nan nan nan nan nan nan nan nan nan nan nan nan nan nan nan nan 0 nan nan nan 3 3 20 17 27 27 22 22 22 22 20 20 21 20 20 18 17 17 17 15 15 13 13 14 15 15 12 2 nan nan nan
9 6 7 6 6 9 12 9 8 8 9 11 11 11 13 11 11 11 8 nan nan nan nan nan nan nan nan nan nan nan nan nan nan nan nan nan nan nan nan nan nan nan nan nan nan nan nan nan nan nan nan nan nan nan nan nan nan nan nan nan nan 6 26 21 21 19 19 19 19 19 17 17 18 18 15 14 14 14 15 15 15 10 0 nan nan nan
14 17 19 17 17 9 1 nan nan nan nan nan nan nan nan 0 1 1 1 0 0 nan nan nan nan nan nan nan nan nan nan nan nan nan nan nan nan nan nan nan nan nan nan nan nan nan nan nan nan nan nan nan nan nan nan nan nan nan nan nan nan nan nan nan nan 2 1 9 13 13 14 16 17 17 16 17 16 16 17 18 18 16 2 nan nan nan
21 23 20 14 14 3 nan nan nan nan nan nan nan nan nan nan 0 0 0 1 1 0 nan nan nan nan nan nan nan nan nan nan 2 2 nan nan nan nan nan nan nan nan nan nan nan nan nan nan nan nan nan nan nan nan nan nan nan nan nan nan nan nan nan nan nan nan nan nan nan nan 10 19 18 18 16 19 19 19 21 22 22 25 13 nan nan nan
25 25 18 9 9 0 nan nan nan nan nan nan nan nan nan nan 0 0 0 0 0 0 0 nan nan nan nan nan nan nan nan nan 5 5 0 nan nan nan nan nan nan nan nan nan nan nan nan nan nan nan nan nan nan nan nan nan nan nan nan nan nan nan nan nan nan nan nan nan nan nan nan nan nan nan 0 8 12 12 19 22 22 26 30 0 0 nan
24 20 11 3 3 nan nan nan nan nan nan nan nan nan 0 nan nan nan 0 0 0 nan nan 0 0 nan nan nan nan nan nan nan 4 4 0 nan nan nan nan nan nan nan nan nan nan nan nan nan nan nan nan nan nan nan nan nan nan nan nan nan nan nan nan nan nan nan nan nan nan nan nan nan nan nan nan nan 0 0 7 15 15 21 27 23 23 0
20 15 7 2 2 nan nan nan nan nan nan nan nan nan 0 0 nan nan nan nan nan nan nan nan nan nan nan nan nan nan nan nan 2 2 nan nan nan nan nan nan nan nan nan nan nan nan nan nan nan nan nan nan nan nan nan nan nan nan nan nan nan nan nan nan nan nan nan nan nan nan nan nan nan nan nan nan nan nan nan 5 5 10 15 17 17 12
17 13 8 2 2 nan nan nan nan nan nan nan nan nan nan nan nan nan nan nan nan nan nan nan nan nan nan nan nan nan nan nan nan nan nan nan nan nan nan nan nan nan nan nan nan nan nan nan nan nan nan nan nan nan nan nan nan nan nan nan nan nan nan nan nan nan nan nan nan nan nan nan nan nan nan nan nan nan nan nan nan 1 7 8 8 10
16 14 9 1 1 nan nan nan nan nan nan nan nan nan nan nan nan nan nan nan nan nan nan nan nan nan 0 nan nan nan nan nan nan nan nan nan nan nan nan nan nan nan nan nan nan nan nan nan nan nan nan nan nan nan nan nan nan nan nan nan nan nan nan nan nan nan nan nan nan nan nan nan nan nan nan nan nan nan nan nan nan nan nan nan nan 5
12 10 9 6 6 nan nan nan nan nan nan nan nan nan nan nan nan nan nan nan nan nan nan nan nan nan nan nan nan nan nan nan nan nan nan nan nan nan nan nan nan nan nan nan nan nan nan nan nan nan nan nan nan nan nan nan nan nan nan nan nan nan nan nan nan nan nan nan nan nan nan nan nan nan nan nan nan nan nan nan nan nan nan nan nan nan
10 9 8 7 7 nan nan nan nan nan nan nan nan nan nan nan nan nan nan nan nan nan nan nan nan nan nan 0 0 0 0 nan nan nan nan nan nan nan nan nan nan nan nan nan nan nan nan nan nan nan nan nan nan nan nan nan nan nan nan nan nan nan nan nan nan nan nan nan nan nan nan nan nan nan nan nan nan nan nan nan nan nan nan nan nan nan
10 9 8 nan nan nan nan nan nan nan nan nan nan nan nan nan nan nan nan nan nan nan nan nan nan nan nan nan nan nan nan nan nan nan nan nan nan nan nan nan nan nan nan nan nan nan nan nan nan nan nan nan nan nan nan nan nan nan nan nan nan nan nan nan nan nan nan nan nan nan nan nan nan nan nan nan nan nan nan nan nan nan nan nan nan nan
12 10 5 nan nan nan nan nan nan nan nan nan nan nan nan nan nan nan nan nan nan nan nan nan nan nan nan nan nan nan nan nan nan nan nan nan nan nan nan nan nan nan nan nan nan nan nan nan nan nan nan nan nan nan nan nan nan nan nan nan nan nan nan nan nan nan nan nan nan nan nan nan nan nan nan nan nan nan nan nan nan nan nan nan nan nan
6 5 nan nan nan nan nan 0 nan nan nan nan nan nan nan nan nan nan nan nan nan nan nan nan nan nan nan nan nan nan nan nan nan nan nan nan nan nan nan nan nan nan nan nan nan nan nan nan nan nan nan nan nan nan nan nan nan nan nan nan nan nan nan nan nan nan nan nan nan nan nan nan nan nan nan nan nan nan nan nan nan nan nan nan nan nan
4 0 nan nan nan nan nan nan nan nan nan nan nan nan nan nan nan nan nan nan nan nan nan nan nan nan nan nan nan nan nan nan nan nan nan nan nan nan nan nan nan nan nan nan nan nan nan nan nan nan nan nan nan nan nan nan nan nan nan nan nan nan nan nan nan nan nan nan nan nan nan nan nan nan nan nan nan nan nan nan nan nan nan nan nan nan
nan nan nan nan nan nan nan nan nan nan nan nan nan nan nan nan nan nan nan nan nan nan nan nan nan nan nan nan nan nan nan nan nan nan nan 1 0 0 nan nan nan nan nan nan nan nan nan nan nan nan nan nan nan nan nan nan nan nan nan nan nan nan nan nan nan nan nan nan nan nan nan nan nan nan nan nan nan nan nan nan nan nan nan nan nan nan
nan nan nan nan nan nan nan nan nan nan nan nan nan nan nan nan nan nan nan nan nan nan nan nan nan nan nan nan nan nan nan nan nan nan nan nan nan nan nan nan nan nan nan nan nan nan nan nan nan nan nan nan nan nan nan nan nan nan nan nan nan nan nan nan nan nan nan nan nan nan nan nan nan nan nan nan nan nan nan nan nan nan nan nan nan nan
nan nan nan nan nan nan nan nan nan nan nan nan nan nan nan nan nan nan nan nan nan nan nan nan nan nan nan nan nan nan nan nan nan nan nan nan nan nan nan nan nan nan nan nan nan nan nan nan nan nan nan nan nan nan nan nan nan nan nan nan nan nan nan nan nan nan nan nan nan nan nan nan nan nan nan nan nan nan nan nan nan nan nan nan nan nan
nan nan nan nan nan nan nan nan nan nan nan nan nan nan nan nan nan nan nan nan nan nan nan nan nan nan nan nan nan nan nan nan nan nan nan nan nan nan nan nan nan nan nan nan nan nan nan nan nan nan nan nan nan nan nan nan nan nan nan nan nan nan nan nan nan nan nan nan nan nan nan nan nan nan nan nan nan nan nan nan nan nan nan nan nan nan
nan nan nan nan nan nan nan nan nan nan nan nan nan nan nan nan 1 1 nan nan nan nan nan nan nan nan nan nan nan nan nan nan nan nan nan nan nan nan nan nan nan nan nan nan nan nan nan nan nan nan nan nan nan nan nan nan nan nan nan nan nan nan nan nan nan nan nan nan nan nan nan nan nan nan nan nan nan nan nan nan nan nan nan nan nan nan
nan nan nan nan nan nan nan nan nan nan nan nan nan nan nan nan nan nan nan nan nan nan nan nan nan nan nan nan nan nan nan nan nan nan nan nan nan nan nan nan nan nan nan nan nan nan nan nan nan nan nan nan nan nan nan nan nan nan nan nan nan nan nan nan nan nan nan nan nan nan nan nan nan nan nan nan nan nan nan nan nan nan nan nan nan nan
nan nan nan nan nan nan nan nan nan nan nan nan nan nan nan nan nan nan nan nan nan nan nan nan nan nan nan nan nan nan nan nan nan nan nan nan nan nan nan nan nan nan nan nan nan nan nan nan nan nan nan 1 nan nan nan nan nan nan nan nan nan nan nan nan nan nan nan nan nan nan nan nan nan nan nan nan nan nan nan nan nan nan nan nan nan nan
CIN
-25 -23 -27 -30 -30 -47 -59 -115 -114 -114 -107 nan nan nan nan nan nan nan nan nan nan nan nan nan nan nan nan nan nan nan nan nan -279 -279 -278 nan nan nan nan nan nan nan nan -204 -204 -170 -148 -131 -131 -116 -119 -119 nan nan nan nan nan nan nan nan nan nan nan nan nan nan nan nan nan nan -0 -0 -0 -0 -0 -0 -0 -0 -0 -0 -0 -0 -0 -0 -0 -0
-28 -28 -31 nan nan -30 -23 nan -101 -101 -99 nan nan nan nan nan nan nan nan nan nan nan nan nan nan nan nan nan nan nan nan nan nan nan nan nan nan nan nan nan nan nan nan nan nan nan -140 -118 -118 -106 -97 -118 nan nan nan nan nan nan nan nan nan nan nan nan nan nan nan nan -0 -0 -0 -0 -0 -0 -0 -0 -0 -0 -0 -0 -0 -0 -0 -0 -0 -0
-21 -20 -29 nan nan -33 -20 nan nan nan -98 -110 nan nan nan nan nan nan nan nan nan nan nan nan nan nan nan nan nan nan nan nan nan nan nan nan nan nan nan nan nan nan nan nan nan nan nan -122 -122 -113 -104 nan nan nan nan nan nan nan nan nan nan nan nan nan nan nan nan nan -0 -0 -0 -0 -0 -0 -0 -0 nan nan -0 -0 -0 -0 -0 -0 -0 -0
-10 -7 -15 -25 -25 nan -24 -32 nan nan nan nan nan nan nan nan nan nan nan nan nan nan nan nan nan nan nan nan nan nan nan nan nan nan nan nan nan nan nan nan nan nan nan nan nan nan nan nan nan nan -116 nan nan nan nan nan nan nan nan nan nan nan nan nan nan nan nan nan -0 -0 -0 -0 -0 -0 nan nan -0 -0 -0 -0 -0 -0 -0 -0 -0 -0
-10 -7 -12 -21 -21 -19 -29 -33 nan nan nan nan nan nan nan nan nan nan nan nan nan nan nan nan nan nan nan nan nan nan nan nan nan nan nan nan nan nan nan nan nan nan nan nan nan nan nan nan nan nan nan nan nan nan nan nan nan nan nan nan nan nan nan nan nan nan nan nan -0 -0 -0 -0 nan nan nan nan -0 -0 -0 -0 -0 -0 -0 -0 -0 -0
-14 -12 -14 -14 -14 -14 -19 -39 -47 -47 nan nan nan nan nan nan nan nan nan nan nan nan nan nan nan nan nan nan nan nan nan nan nan nan nan nan nan nan nan nan nan nan nan nan nan nan nan nan nan nan nan nan nan nan nan nan nan nan nan nan nan nan nan nan nan nan nan nan nan nan nan nan nan nan nan nan -0 -0 -0 -0 -0 -0 -0 -0 -0 -0
-10 -16 -22 -16 -16 -14 -17 -29 -48 -48 nan nan nan nan nan nan nan nan nan nan nan nan nan nan nan nan nan nan nan nan nan nan nan nan nan nan nan nan nan nan nan nan nan nan nan nan nan nan nan nan nan nan nan nan nan nan nan nan nan nan nan nan -1 nan nan nan nan nan nan nan nan nan nan nan nan nan -0 -0 -0 -0 -0 -0 -0 -0 -0 -0
-7 -8 -11 -8 -8 -8 -13 -30 -41 -41 -33 -15 -11 -11 -15 nan nan nan nan nan nan nan nan nan nan nan nan nan nan nan nan nan nan nan nan nan nan nan nan nan nan nan nan nan nan nan nan nan nan nan nan nan nan nan nan nan nan nan nan -1 -1 -0 -0 -0 -0 -0 -0 -0 -0 -0 -0 -0 nan nan nan nan -0 -0 -0 -0 -0 -0 -0 -0 -0 -0
-9 -6 -8 -14 -14 -11 -9 -21 -47 -47 -47 -25 -13 -13 -8 -12 nan nan nan nan nan nan nan nan nan nan nan nan nan nan nan nan nan nan nan nan nan nan nan nan nan nan nan nan nan nan nan nan nan nan nan nan nan nan nan nan nan -1 -1 -0 -0 -0 -0 -0 -0 -0 -0 -0 -0 -0 -0 -0 nan nan nan nan nan nan -0 -0 -0 -0 -0 -0 -0 -0
-5 -6 -7 -14 -14 -18 -9 -9 -33 -33 -61 -38 -25 -25 -15 -9 -19 -19 nan nan nan nan nan nan nan nan nan nan nan nan nan nan nan nan nan nan nan nan nan nan nan nan nan nan nan nan nan nan nan nan nan nan nan nan nan -2 -2 -1 -1 -0 -0 -0 -0 -0 -0 -0 -0 -0 -0 -0 -0 -0 -0 -0 -0 nan -0 -0 -0 -0 -0 -0 -0 -0 -0 -0
-3 -7 -8 -10 -10 -20 -16 -11 -24 -24 -57 -36 -23 -23 -18 -15 -16 -16 nan nan nan nan nan nan nan nan nan nan nan nan nan nan nan nan nan nan nan nan nan nan nan nan nan nan nan nan nan nan nan nan nan nan nan nan nan nan nan nan -1 -0 -0 -0 -0 -0 -0 -0 -0 -0 -0 -0 -0 -0 -0 -0 -0 -0 -0 -0 -0 -0 -0 -0 -0 -0 -0 -0
-4 -7 -8 -12 -12 -16 -15 -23 -63 -63 nan -26 -10 -10 -14 -32 -22 -22 -20 nan nan nan nan nan nan nan nan nan nan nan nan nan nan nan nan nan nan nan nan nan nan nan nan -9 -9 nan nan nan nan nan nan nan nan nan nan nan nan nan -1 -0 -0 -0 -0 -0 -0 -0 -0 -0 -0 -0 -0 -0 -0 -0 -0 -0 -0 -0 -0 -0 -0 -0 -0 -0 -0 -0
-5 -7 -7 -9 -9 -11 -12 -13 -20 -20 -30 -15 -10 -10 -17 -46 -37 -37 -19 nan nan nan nan nan nan nan nan nan nan nan nan nan nan nan nan nan nan nan nan nan nan nan nan nan nan nan nan nan nan nan nan nan nan nan nan nan nan nan -1 -0 -0 -0 -0 -0 -0 -0 -0 -0 -0 -0 -0 -0 -0 -0 -0 -0 -0 -0 -0 -0 -0 -0 -0 -0 -0 -0
-3 -5 -3 -3 -3 -6 -11 -11 -8 -8 -12 -20 -24 -24 -32 nan -44 -44 -24 -32 -32 nan nan nan nan nan nan nan nan nan nan nan nan nan nan nan nan nan nan nan nan nan nan nan nan nan nan nan nan nan nan nan nan nan nan nan nan -1 -0 -0 -0 -0 -0 -0 -0 -0 -0 -0 -0 -0 -0 -0 -0 -0 -0 -0 -0 -0 -0 -0 -0 -0 -0 -0 -0 -0
-2 -3 -2 -2 -2 -4 -7 -8 -5 -5 -11 -24 -36 -36 -40 -49 -53 -53 -39 -36 -36 nan nan nan nan nan nan nan nan nan nan nan nan nan nan nan nan nan nan nan nan nan nan nan nan nan nan nan nan nan nan nan nan nan nan nan nan -1 -0 -0 -0 -0 -0 -0 -0 -0 -0 -0 -0 -0 -0 -0 -0 -0 -0 -0 -0 -0 -0 -0 -0 -0 -0 -0 -0 -0
-3 -2 -2 -2 -2 -4 -7 -9 -7 -7 -9 -19 -19 -19 -16 -23 -48 -48 -46 -42 -42 nan nan nan nan nan nan nan nan nan nan nan nan nan nan nan nan nan nan nan nan nan nan nan nan nan nan nan nan nan nan nan nan nan nan -0 -0 -0 -0 -0 -0 -0 -0 -0 -0 -0 -0 -0 -0 -0 -0 -0 -0 -0 -0 -0 -0 -0 -0 -0 -0 -0 -0 -0 -0 -0
-3 -2 -3 -2 -2 -3 -6 -8 -6 -6 -7 -8 -8 -8 -11 -15 -33 -33 -37 -46 -46 nan nan nan nan nan nan nan nan nan nan nan nan nan nan nan nan nan nan nan nan nan nan nan nan nan nan nan nan nan nan nan nan nan -1 -0 -0 -0 -0 -0 -0 -0 -0 -0 -0 -0 -0 -0 -0 -0 -0 -0 -0 -0 -0 -0 -0 -0 -0 -0 -0 -0 -0 -0 -0 -0
-2 -3 -2 -2 -2 -5 -8 -8 -7 -7 -8 -7 -8 -8 -14 -15 -22 -22 -35 nan nan nan nan nan nan nan nan nan nan nan nan nan nan nan nan nan nan nan nan nan nan nan nan nan nan nan nan nan nan nan nan nan -1 -1 -0 -0 -0 -0 -0 -0 -0 -0 -0 -0 -0 -0 -0 -0 -0 -0 -0 -0 -0 -0 -0 -0 -0 -0 -0 -0 -0 -0 -0 -0 -0 -0
-2 -2 -2 -2 -2 -5 -8 -8 -8 -8 -7 -8 -11 -11 -13 -18 -24 -24 -31 nan nan nan nan nan nan nan nan nan nan nan nan nan nan nan nan nan nan nan nan nan nan nan nan nan nan nan nan nan nan nan nan -1 -0 -0 -0 -0 -0 -0 -0 -0 -0 -0 -0 -0 -0 -0 -0 -0 -0 -0 -0 -0 -0 -0 -0 -0 -0 -0 -0 -0 -0 -0 -0 -0 -0 -0
-1 -1 -2 -2 -2 -3 -3 -5 -7 -7 -7 -8 -8 -8 -9 -10 -11 -11 -23 nan nan nan nan nan nan nan nan nan nan nan nan nan nan nan nan nan nan nan nan nan nan nan nan nan nan nan nan nan nan nan -0 -1 -0 -0 -0 -0 -0 -0 -0 -0 -0 -0 -0 -0 -0 -0 -0 -0 -0 -0 -0 -0 -0 -0 -0 -0 -0 -0 -0 -0 -0 -0 -0 -0 -0 -0
-0 -1 -2 -3 -3 -2 -2 -6 -10 -10 -12 -9 -3 -3 -4 -4 -7 -7 -14 nan nan nan nan nan nan nan nan nan nan nan nan nan nan nan nan nan nan nan nan nan nan nan nan nan nan nan nan nan nan nan -0 -0 -0 -0 -0 -0 -0 -0 -0 -0 -0 -0 -0 -0 -0 -0 -0 -0 -0 -0 -0 -0 -0 -0 -0 -0 -0 -0 -0 -0 -0 -0 -0 -0 -0 -0
-0 -0 -3 -3 -3 -1 -2 -5 -11 -11 -14 -4 -3 -3 -1 -2 -3 -3 -9 -25 -25 nan nan nan nan nan nan nan nan nan nan nan nan nan nan nan nan nan nan nan nan nan nan nan nan nan nan nan nan nan -0 -0 -0 -0 -0 -0 -0 -0 -0 -0 -0 -0 -0 -0 -0 -0 -0 -0 -0 -0 -0 -0 -0 -0 -0 -0 -0 -0 -0 -0 -0 -0 -0 -0 -0 -0
-1 -1 -2 -2 -2 -1 -1 -2 -4 -4 -7 -3 -6 -6 -1 -1 -5 -5 -5 -20 -20 nan nan nan nan nan nan nan nan nan nan nan nan nan nan nan nan nan nan nan nan nan nan nan nan nan nan nan nan nan -0 -0 -0 -0 -0 -0 -0 -0 -0 -0 -0 -0 -0 -0 -0 -0 -0 -0 -0 -0 -0 -0 -0 -0 -0 -0 -0 -0 -0 -0 -0 -0 -0 -0 -0 -0
-2 -2 -3 -3 -3 -2 -2 -1 -2 -2 -2 -2 -2 -2 -2 -1 -2 -2 -4 -6 -6 nan nan nan nan nan nan nan nan nan nan nan nan nan nan nan nan nan nan nan nan nan nan nan nan nan nan nan nan nan nan -0 -0 -0 -0 -0 -0 -0 -0 -0 -0 -0 -0 -0 -0 -0 -0 -0 -0 -0 -0 -0 -0 -0 -0 -0 -0 -0 -0 -0 -0 -0 -0 -0 -0 -0
-4 -3 -3 -4 -4 -4 -3 -3 -3 -3 -2 -1 -2 -2 -3 -3 -4 -4 -4 -6 -6 nan nan nan nan nan nan nan nan nan nan nan nan nan nan nan nan nan nan nan nan nan nan nan nan nan nan nan nan nan nan nan -0 -0 -0 -0 -0 -0 -0 -0 -0 -0 -0 -0 -0 -0 -0 -0 -0 -0 -0 -0 -0 -0 -0 -0 -0 -0 -0 -0 -0 -0 -0 -0 -0 -0
-3 -3 -3 -3 -3 -3 -3 -2 -2 -2 -2 -2 -2 -2 -3 -3 -5 -5 nan nan nan nan nan nan nan nan nan nan nan nan nan nan nan nan nan nan nan nan nan nan nan nan nan nan nan nan nan nan nan nan nan nan -0 -0 -0 -0 -0 -0 -0 -0 -0 -0 -0 -0 -0 -0 -0 -0 -0 -0 -0 -0 -0 -0 -0 -0 -0 -0 -0 -0 -0 -0 -0 -0 -0 -0
-1 -1 -1 -1 -1 -1 -2 -2 -1 -1 -1 -2 -3 -3 -2 -1 -7 -7 nan nan nan nan nan nan nan nan nan nan nan nan nan nan nan nan nan nan nan nan nan nan nan nan nan nan nan nan nan nan nan nan nan nan -0 -0 -0 -0 -0 -0 -0 -0 -0 -0 -0 -0 -0 -0 -0 -0 -0 -0 -0 -0 -0 -0 -0 -0 -0 -0 -0 -0 -0 -0 -0 -0 -0 -0
-2 -2 -2 -2 -2 -3 -3 -2 -1 -1 -1 -1 -1 -1 -2 -1 -7 -7 nan nan nan nan nan nan nan nan nan nan nan nan nan nan nan nan nan nan nan nan nan nan nan nan nan nan nan -0 -0 nan nan nan nan nan nan nan -0 -0 -0 -0 -0 -0 -0 -0 -0 -0 -0 -0 -0 -0 -0 -0 -0 -0 -0 -0 -0 -0 -0 -0 -0 -0 -0 -0 -0 -5 -5 nan
-7 -7 -6 -5 -5 -4 -4 -2 -1 -1 -1 -0 -1 -1 -1 -2 -2 -2 nan nan nan nan nan nan nan nan nan nan nan nan nan nan nan nan nan nan nan nan nan nan nan nan nan nan nan nan nan nan nan nan nan nan nan nan -0 -0 -0 -0 -0 -0 -0 -0 -0 -0 -0 -0 -0 -0 -0 -0 -0 -0 -0 -0 -0 -0 -0 -0 -0 -0 -0 -0 -0 -13 -13 nan
-14 -14 -11 -8 -8 -6 -5 -4 -2 -2 -1 -1 -1 -1 -1 -1 -0 -0 -3 nan nan nan nan nan nan nan nan nan nan nan nan nan nan nan nan nan nan nan nan nan nan nan nan nan nan nan nan nan nan nan nan -0 nan nan nan -0 -0 -0 -0 -0 -0 -0 -0 -0 -0 -0 -0 -0 -0 -0 -0 -0 -0 -0 -0 -0 -0 -0 -0 -0 -0 -0 -13 nan nan nan
-11 -11 -9 -9 -9 -8 -7 -6 -4 -4 -2 -0 -0 -0 -1 -1 -1 -1 -2 nan nan nan nan nan nan nan nan nan nan nan nan nan nan nan nan nan nan nan nan nan nan nan nan nan nan nan nan nan nan nan nan nan nan nan nan nan nan nan nan nan nan -11 -0 -0 -0 -0 -0 -0 -0 -0 -0 -0 -0 -0 -0 -0 -0 -0 -0 -0 -0 -0 -26 nan nan nan
-4 -4 -4 -5 -5 -8 -13 nan nan nan nan nan nan nan nan -0 -0 -0 -0 -0 -0 nan nan nan nan nan nan nan nan nan nan nan nan nan nan nan nan nan nan nan nan nan nan nan nan nan nan nan nan nan nan nan nan nan nan nan nan nan nan nan nan nan nan nan nan -0 -9 -0 -0 -0 -0 -0 -0 -0 -0 -0 -0 -0 -0 -0 -0 -0 -20 nan nan nan
-2 -3 -4 -6 -6 -9 nan nan nan nan nan nan nan nan nan nan -0 -0 -0 -0 -0 -0 nan nan nan nan nan nan nan nan nan nan -0 -0 nan nan nan nan nan nan nan nan nan nan nan nan nan nan nan nan nan nan nan nan nan nan nan nan nan nan nan nan nan nan nan nan nan nan nan nan -0 -0 -0 -0 -0 -0 -0 -0 -0 -0 -0 -0 -1 nan nan nan
-2 -2 -4 -5 -5 -10 nan nan nan nan nan nan nan nan nan nan -0 -0 -0 -0 -0 -0 -0 nan nan nan nan nan nan nan nan nan -0 -0 -2 nan nan nan nan nan nan nan nan nan nan nan nan nan nan nan nan nan nan nan nan nan nan nan nan nan nan nan nan nan nan nan nan nan nan nan nan nan nan nan -22 -5 -0 -0 -0 -0 -0 -0 -0 -23 -23 nan
-1 -2 -4 -7 -7 nan nan nan nan nan nan nan nan nan -0 nan nan nan -0 -0 -0 nan nan -0 -0 nan nan nan nan nan nan nan -0 -0 -2 nan nan nan nan nan nan nan nan nan nan nan nan nan nan nan nan nan nan nan nan nan nan nan nan nan nan nan nan nan nan nan nan nan nan nan nan nan nan nan nan nan -8 -8 -0 -0 -0 -0 -0 -0 -0 -17
-1 -2 -4 -6 -6 nan nan nan nan nan nan nan nan nan -0 -0 nan nan nan nan nan nan nan nan nan nan nan nan nan nan nan nan -1 -1 nan nan nan nan nan nan nan nan nan nan nan nan nan nan nan nan nan nan nan nan nan nan nan nan nan nan nan nan nan nan nan nan nan nan nan nan nan nan nan nan nan nan nan nan nan -0 -0 -0 -0 -0 -0 -0
-1 -2 -4 -7 -7 nan nan nan nan nan nan nan nan nan nan nan nan nan nan nan nan nan nan nan nan nan nan nan nan nan nan nan nan nan nan nan nan nan nan nan nan nan nan nan nan nan nan nan nan nan nan nan nan nan nan nan nan nan nan nan nan nan nan nan nan nan nan nan nan nan nan nan nan nan nan nan nan nan nan nan nan -0 -0 -0 -0 -0
-1 -1 -3 -8 -8 nan nan nan nan nan nan nan nan nan nan nan nan nan nan nan nan nan nan nan nan nan -0 nan nan nan nan nan nan nan nan nan nan nan nan nan nan nan nan nan nan nan nan nan nan nan nan nan nan nan nan nan nan nan nan nan nan nan nan nan nan nan nan nan nan nan nan nan nan nan nan nan nan nan nan nan nan nan nan nan nan -0
-1 -2 -3 -4 -4 nan nan nan nan nan nan nan nan nan nan nan nan nan nan nan nan nan nan nan nan nan nan nan nan nan nan nan nan nan nan nan nan nan nan nan nan nan nan nan nan nan nan nan nan nan nan nan nan nan nan nan nan nan nan nan nan nan nan nan nan nan nan nan nan nan nan nan nan nan nan nan nan nan nan nan nan nan nan nan nan nan
-2 -2 -3 -3 -3 nan nan nan nan nan nan nan nan nan nan nan nan nan nan nan nan nan nan nan nan nan nan -0 -0 -0 -0 nan nan nan nan nan nan nan nan nan nan nan nan nan nan nan nan nan nan nan nan nan nan nan nan nan nan nan nan nan nan nan nan nan nan nan nan nan nan nan nan nan nan nan nan nan nan nan nan nan nan nan nan nan nan nan
-1 -2 -2 nan nan nan nan nan nan nan nan nan nan nan nan nan nan nan nan nan nan nan nan nan nan nan nan nan nan nan nan nan nan nan nan nan nan nan nan nan nan nan nan nan nan nan nan nan nan nan nan nan nan nan nan nan nan nan nan nan nan nan nan nan nan nan nan nan nan nan nan nan nan nan nan nan nan nan nan nan nan nan nan nan nan nan
-1 -1 -3 nan nan nan nan nan nan nan nan nan nan nan nan nan nan nan nan nan nan nan nan nan nan nan nan nan nan nan nan nan nan nan nan nan nan nan nan nan nan nan nan nan nan nan nan nan nan nan nan nan nan nan nan nan nan nan nan nan nan nan nan nan nan nan nan nan nan nan nan nan nan nan nan nan nan nan nan nan nan nan nan nan nan nan
-1 -2 nan nan nan nan nan -0 nan nan nan nan nan nan nan nan nan nan nan nan nan nan nan nan nan nan nan nan nan nan nan nan nan nan nan nan nan nan nan nan nan nan nan nan nan nan nan nan nan nan nan nan nan nan nan nan nan nan nan nan nan nan nan nan nan nan nan nan nan nan nan nan nan nan nan nan nan nan nan nan nan nan nan nan nan nan
-1 -3 nan nan nan nan nan nan nan nan nan nan nan nan nan nan nan nan nan nan nan nan nan nan nan nan nan nan nan nan nan nan nan nan nan nan nan nan nan nan nan nan nan nan nan nan nan nan nan nan nan nan nan nan nan nan nan nan nan nan nan nan nan nan nan nan nan nan nan nan nan nan nan nan nan nan nan nan nan nan nan nan nan nan nan nan
nan nan nan nan nan nan nan nan nan nan nan nan nan nan nan nan nan nan nan nan nan nan nan nan nan nan nan nan nan nan nan nan nan nan nan -0 -0 -0 nan nan nan nan nan nan nan nan nan nan nan nan nan nan nan nan nan nan nan nan nan nan nan nan nan nan nan nan nan nan nan nan nan nan nan nan nan nan nan nan nan nan nan nan nan nan nan nan
nan nan nan nan nan nan nan nan nan nan nan nan nan nan nan nan nan nan nan nan nan nan nan nan nan nan nan nan nan nan nan nan nan nan nan nan nan nan nan nan nan nan nan nan nan nan nan nan nan nan nan nan nan nan nan nan nan nan nan nan nan nan nan nan nan nan nan nan nan nan nan nan nan nan nan nan nan nan nan nan nan nan nan nan nan nan
nan nan nan nan nan nan nan nan nan nan nan nan nan nan nan nan nan nan nan nan nan nan nan nan nan nan nan nan nan nan nan nan nan nan nan nan nan nan nan nan nan nan nan nan nan nan nan nan nan nan nan nan nan nan nan nan nan nan nan nan nan nan nan nan nan nan nan nan nan nan nan nan nan nan nan nan nan nan nan nan nan nan nan nan nan nan
nan nan nan nan nan nan nan nan nan nan nan nan nan nan nan nan nan nan nan nan nan nan nan nan nan nan nan nan nan nan nan nan nan nan nan nan nan nan nan nan nan nan nan nan nan nan nan nan nan nan nan nan nan nan nan nan nan nan nan nan nan nan nan nan nan nan nan nan nan nan nan nan nan nan nan nan nan nan nan nan nan nan nan nan nan nan
nan nan nan nan nan nan nan nan nan nan nan nan nan nan nan nan -0 -0 nan nan nan nan nan nan nan nan nan nan nan nan nan nan nan nan nan nan nan nan nan nan nan nan nan nan nan nan nan nan nan nan nan nan nan nan nan nan nan nan nan nan nan nan nan nan nan nan nan nan nan nan nan nan nan nan nan nan nan nan nan nan nan nan nan nan nan nan
nan nan nan nan nan nan nan nan nan nan nan nan nan nan nan nan nan nan nan nan nan nan nan nan nan nan nan nan nan nan nan nan nan nan nan nan nan nan nan nan nan nan nan nan nan nan nan nan nan nan nan nan nan nan nan nan nan nan nan nan nan nan nan nan nan nan nan nan nan nan nan nan nan nan nan nan nan nan nan nan nan nan nan nan nan nan
nan nan nan nan nan nan nan nan nan nan nan nan nan nan nan nan nan nan nan nan nan nan nan nan nan nan nan nan nan nan nan nan nan nan nan nan nan nan nan nan nan nan nan nan nan nan nan nan nan nan nan -0 nan nan nan nan nan nan nan nan nan nan nan nan nan nan nan nan nan nan nan nan nan nan nan nan nan nan nan nan nan nan nan nan nan nan
Wind_Speed
5 5 6 8 8 7 8 9 10 10 10 9 9 9 9 10 11 12 14 14 14 14 14 15 15 15 16 19 22 24 26 28 29 29 29 28 28 27 27 27 27 27 27 27 26 25 24 23 23 22 23 23 22 22 21 20 20 20 20 20 21 21 21 21 20 20 19 19 18 17 17 18 18 19 19 18 18 18 17 17 17 17 17 17 17 18
6 6 6 7 8 8 8 10 10 10 10 10 10 9 8 9 10 10 11 12 13 13 13 14 15 15 16 17 19 22 24 26 28 29 29 28 28 27 27 27 26 26 25 25 24 24 23 22 21 21 21 22 21 21 20 19 19 19 20 21 21 21 21 21 20 20 19 18 18 18 18 19 19 19 19 18 18 17 17 17 17 17 17 17 18 18
6 6 6 6 7 8 8 9 10 10 11 11 10 9 9 10 10 10 10 11 11 12 13 13 13 14 15 15 17 20 22 24 26 27 28 28 27 27 26 25 24 24 23 23 22 22 21 21 20 20 20 21 21 20 20 20 20 20 20 20 21 21 20 20 19 19 18 18 18 18 19 19 19 19 18 18 18 17 17 17 17 17 17 17 17 18
7 6 6 5 6 8 9 9 9 9 9 9 10 11 11 11 10 9 10 10 10 11 12 13 13 13 13 13 15 18 21 23 24 26 26 27 26 26 25 24 23 21 21 21 20 20 20 20 20 20 20 20 20 20 20 20 20 20 20 20 20 20 19 19 19 18 18 18 18 18 19 19 19 19 18 18 17 17 17 17 17 17 17 17 17 17
7 7 6 5 6 7 9 9 9 8 7 8 9 10 10 9 9 9 9 9 10 10 10 11 12 12 11 11 13 16 19 22 23 24 25 25 25 25 24 23 21 21 20 20 20 19 19 20 20 21 21 21 21 21 21 21 21 21 20 20 20 20 19 19 18 18 18 18 18 18 19 19 19 18 18 18 17 17 17 17 17 17 17 17 17 17
7 7 6 5 6 7 7 8 7 7 6 7 7 8 8 8 8 8 8 8 9 9 9 9 10 10 11 11 12 15 18 20 22 23 23 23 23 23 22 22 22 21 21 21 21 20 20 21 21 22 22 22 22 22 22 22 22 21 21 21 20 20 19 19 19 18 18 18 18 18 18 19 18 18 18 18 18 18 17 17 17 17 17 16 16 17
7 7 6 6 7 7 7 6 6 6 7 7 7 7 8 8 8 8 9 8 8 8 7 7 8 9 9 10 12 13 15 17 19 20 21 21 21 21 21 21 22 23 23 23 23 23 22 22 22 23 23 23 24 24 23 23 23 23 22 22 21 21 20 20 19 19 18 18 18 18 18 18 18 18 18 18 17 17 17 17 17 17 17 16 17 17
8 8 8 8 8 7 7 6 6 6 7 8 8 7 8 7 7 8 8 8 8 7 7 7 7 8 8 9 10 11 12 13 14 14 16 17 18 19 19 21 22 24 25 25 25 25 24 24 24 24 25 25 25 25 25 25 24 24 23 23 22 22 21 20 20 19 18 18 18 18 18 18 18 18 18 17 17 17 17 17 17 17 17 17 17 17
11 10 9 9 9 9 8 8 7 7 7 8 9 9 8 8 8 7 7 7 7 7 7 7 7 8 8 8 8 9 10 10 10 10 11 11 12 13 16 18 21 24 26 26 26 26 25 25 25 25 26 26 26 27 26 26 25 24 23 23 22 22 21 21 20 19 18 18 18 18 18 18 18 18 18 18 17 18 17 17 17 17 17 17 17 17
11 10 9 9 8 8 8 9 9 8 8 8 8 8 9 10 9 8 8 8 7 7 7 7 8 8 8 8 8 8 9 11 12 12 12 11 11 11 12 14 16 20 25 26 27 27 26 26 26 26 26 27 27 27 27 26 25 24 23 22 22 21 21 20 19 19 18 18 18 18 19 19 19 18 18 18 18 18 17 17 17 17 17 17 17 17
10 9 8 8 7 7 7 8 7 7 6 7 7 7 8 9 9 9 10 9 8 7 7 8 9 9 9 8 8 8 7 8 10 12 13 13 13 12 12 13 14 17 22 24 26 26 26 27 27 27 27 28 28 28 27 26 25 24 23 22 22 21 20 20 19 19 18 18 19 19 19 19 19 19 19 18 18 18 18 17 17 17 17 17 18 18
9 8 7 7 7 6 6 6 6 6 5 6 7 8 8 7 8 9 11 10 9 8 8 8 9 9 9 8 8 7 7 7 7 8 8 9 10 10 9 10 12 14 17 20 23 25 26 28 28 28 27 28 28 28 27 26 25 24 24 23 22 21 20 20 19 19 19 19 19 20 20 20 20 20 19 19 19 19 18 18 18 17 17 18 18 18
8 7 6 7 7 7 6 6 6 5 5 6 7 8 7 6 6 7 9 10 10 9 8 7 8 8 9 8 7 6 6 6 6 6 5 6 6 6 6 6 7 8 10 12 14 17 22 26 27 27 27 28 28 28 28 26 25 25 24 24 23 22 21 20 19 19 19 20 20 20 21 21 20 20 20 20 19 19 19 18 18 18 18 18 18 18
8 7 6 7 7 6 6 7 7 7 6 7 7 7 6 5 6 7 8 9 8 7 7 7 7 7 7 7 7 6 6 5 5 5 5 5 5 5 5 5 6 6 6 7 8 10 15 19 20 21 26 26 27 28 28 27 26 25 25 24 23 22 21 20 20 20 20 20 20 21 21 21 21 21 20 20 20 19 19 19 18 18 18 18 18 18
8 8 8 8 8 7 6 7 9 9 8 7 6 6 6 5 5 6 7 8 8 6 6 7 7 6 6 6 6 6 6 5 5 5 6 5 5 4 5 5 5 5 5 6 6 8 11 13 12 13 18 22 23 24 25 24 25 25 24 23 22 21 21 20 20 20 20 21 21 21 21 21 21 21 20 20 20 19 19 19 18 18 18 18 18 18
7 7 8 9 8 7 6 6 7 8 8 8 7 8 8 7 6 5 6 7 7 6 5 6 6 6 5 4 5 6 6 6 6 6 6 6 5 4 5 6 6 6 6 6 6 6 7 8 9 10 12 18 22 23 24 23 24 25 24 23 22 21 20 20 20 20 20 20 20 20 21 21 21 21 20 20 19 19 19 19 18 18 18 18 18 18
8 8 8 8 8 8 8 7 6 6 7 7 7 8 9 9 8 7 6 6 5 5 5 5 5 5 4 3 4 5 7 7 6 6 6 6 5 5 5 7 7 7 7 7 6 6 6 6 7 8 10 16 21 24 24 23 23 23 23 22 21 20 20 20 20 20 20 20 20 20 20 20 20 20 20 19 19 19 19 18 18 18 18 18 18 18
9 9 9 9 9 8 8 7 6 6 6 6 6 6 6 8 9 9 9 7 6 6 5 5 5 5 4 3 3 5 8 8 7 6 6 7 6 5 5 6 7 8 8 7 6 6 6 6 6 7 9 17 21 23 23 22 22 22 21 20 20 20 20 20 20 20 20 20 20 20 20 20 20 20 19 19 19 18 18 18 18 18 18 18 18 18
11 10 10 10 10 9 8 7 6 6 5 5 5 5 5 6 7 9 10 8 7 7 6 6 6 6 6 5 4 5 8 9 8 7 7 7 6 5 5 6 7 7 7 7 6 5 4 4 6 9 13 18 21 22 22 21 20 20 19 19 19 19 19 19 19 19 20 20 20 20 20 20 20 20 19 19 19 18 18 18 18 18 18 18 18 18
13 12 11 10 10 10 10 7 6 5 5 5 6 7 7 7 8 8 8 6 6 6 7 7 7 7 6 6 4 5 7 8 8 8 8 7 6 4 6 6 7 7 7 6 5 4 3 3 5 9 14 18 20 21 21 20 19 18 18 18 17 18 18 18 19 19 20 20 20 20 21 20 20 20 19 19 19 18 18 18 18 18 18 18 18 18
14 14 12 10 10 9 8 7 7 7 8 8 9 11 11 10 9 8 7 6 6 7 6 7 8 8 7 6 4 4 8 8 8 7 6 6 5 4 5 6 7 7 7 6 4 3 3 3 3 5 11 16 19 20 20 19 18 17 16 16 16 17 17 18 19 20 20 21 21 21 21 20 20 20 19 19 19 18 18 18 18 18 18 18 18 18
13 13 13 13 12 11 10 11 11 12 12 14 15 14 11 10 10 9 8 7 7 7 7 8 8 8 6 6 3 3 8 8 8 7 5 5 5 4 4 5 6 7 7 5 4 4 4 3 3 4 9 15 18 19 18 18 17 16 15 15 16 16 17 18 19 20 21 21 21 21 21 20 20 20 19 19 18 18 17 17 18 18 18 18 18 18
13 14 15 15 14 13 12 12 11 11 11 13 14 14 11 10 11 12 10 9 8 8 8 8 7 4 2 1 1 2 5 7 7 6 5 5 5 4 5 5 6 7 7 4 4 4 4 4 4 5 8 15 17 17 17 16 16 15 15 15 16 17 18 19 20 21 21 21 21 20 20 20 20 19 19 18 18 17 17 17 17 18 18 18 18 18
14 14 15 14 14 13 13 12 11 10 9 9 10 11 10 11 12 13 11 11 11 10 7 6 4 2 0 1 1 1 4 5 5 5 5 6 5 4 4 5 6 7 6 4 4 4 5 4 4 4 6 13 16 16 16 16 15 15 15 16 16 18 19 20 20 21 21 21 20 20 20 19 19 19 18 18 17 17 17 17 17 17 18 18 18 18
14 14 14 14 15 16 16 16 16 15 14 13 12 12 12 12 12 12 12 12 11 9 5 4 4 3 3 2 2 2 3 4 5 5 4 5 4 3 4 5 6 6 5 4 4 4 5 4 4 4 4 8 13 16 16 16 15 15 16 17 18 19 20 20 21 21 21 20 20 19 19 19 19 18 18 17 17 17 16 17 17 17 17 17 17 17
19 19 20 21 24 26 28 28 28 27 25 21 17 14 13 13 12 11 10 9 8 6 5 5 6 6 4 3 3 3 3 4 4 5 4 4 3 3 3 4 4 4 4 4 4 4 5 5 4 4 3 5 9 14 15 16 16 16 17 18 19 20 21 21 21 20 20 20 19 19 19 19 18 18 17 17 16 16 16 16 17 17 17 16 16 16
26 28 29 31 32 32 33 33 33 34 34 31 26 21 17 13 12 11 11 9 7 6 6 7 7 7 5 4 4 4 3 4 4 4 3 2 2 2 3 3 3 4 4 4 3 4 5 5 5 5 4 4 6 9 14 16 17 17 18 19 20 20 21 20 20 20 19 19 19 19 19 19 18 17 17 17 16 16 16 16 16 16 16 14 13 12
26 27 28 29 30 31 32 32 33 33 33 32 31 28 21 14 12 11 12 8 6 6 7 8 8 7 6 5 4 3 3 4 4 3 2 2 2 2 3 3 3 4 4 4 3 3 4 4 4 4 4 4 4 6 11 15 17 18 19 20 20 20 20 19 19 18 18 19 19 19 19 18 18 17 17 17 16 16 16 16 16 15 14 11 8 6
22 23 25 26 27 28 29 29 28 28 28 28 28 25 19 13 11 11 11 8 6 6 8 8 8 7 6 4 3 2 2 3 4 4 3 3 2 2 3 3 4 4 4 4 3 2 1 2 2 3 4 5 5 5 6 11 14 15 17 19 19 19 18 18 18 18 18 18 19 19 18 18 18 17 17 17 16 16 16 16 15 14 11 8 6 4
17 18 20 21 21 22 21 20 20 20 22 23 24 22 17 12 11 11 11 8 7 7 8 9 9 7 5 2 2 2 2 4 4 5 5 4 3 3 3 4 4 4 5 4 3 2 0 1 1 2 4 5 5 4 4 6 7 8 9 13 14 15 16 17 17 17 18 18 18 18 18 18 18 17 17 17 17 16 16 16 15 11 7 6 5 5
16 16 16 16 15 14 13 13 13 14 16 18 18 17 13 11 10 10 10 9 8 8 8 9 8 7 5 3 3 3 4 4 6 7 6 5 4 4 5 5 5 5 4 4 4 3 2 1 1 2 3 4 4 4 4 3 3 3 3 4 5 8 11 14 15 16 17 17 17 18 18 18 18 17 17 17 17 17 17 17 15 11 6 5 5 5
16 14 13 12 11 10 9 9 10 10 11 11 11 10 9 8 8 8 8 7 7 7 8 8 8 7 6 5 5 5 3 4 6 9 8 5 4 4 5 5 5 5 3 2 2 3 3 3 2 2 3 3 4 4 4 3 3 3 3 3 2 3 7 9 11 12 12 15 16 17 17 17 17 17 17 17 17 17 17 17 15 11 6 5 5 5
15 13 11 11 10 9 9 8 8 8 8 7 6 6 6 6 6 6 6 6 5 5 6 7 6 6 5 6 5 3 2 3 6 10 10 6 4 4 4 5 5 5 4 2 1 1 2 3 3 3 3 3 3 3 3 3 3 3 3 3 3 2 4 4 4 5 4 6 9 11 14 15 16 16 16 17 17 17 17 17 16 13 9 6 5 5
14 13 12 11 10 9 9 8 7 7 5 5 4 4 4 4 4 5 5 4 4 4 4 4 4 4 4 5 4 2 2 3 7 10 10 6 5 4 5 6 6 6 5 3 2 2 2 2 3 3 3 3 3 3 3 3 3 3 3 3 3 3 2 2 2 2 2 2 1 1 3 6 8 10 11 13 14 15 16 16 16 16 13 8 6 5
13 12 11 11 10 9 9 8 7 5 4 4 4 4 4 4 4 4 4 4 4 3 3 3 3 2 3 3 3 3 2 4 7 10 10 6 5 4 5 6 6 6 6 4 3 3 2 2 3 4 4 4 3 2 2 2 2 2 2 3 3 3 2 3 3 3 3 3 3 3 2 2 1 1 3 6 8 10 12 14 15 15 15 12 9 7
12 12 11 10 10 9 9 8 6 4 3 3 3 4 4 4 4 4 4 4 3 3 3 2 2 2 1 1 3 4 4 6 8 10 9 7 5 5 4 5 5 6 6 5 4 4 3 3 4 5 5 4 3 2 1 2 2 2 2 2 2 2 2 3 3 3 3 3 3 2 2 2 3 2 1 2 4 6 9 11 12 13 14 13 12 10
12 11 11 9 9 8 8 6 5 3 3 3 3 3 4 4 4 4 3 3 3 3 3 3 3 4 4 2 2 3 5 7 8 9 8 5 4 4 4 4 5 5 5 5 5 5 4 4 4 4 4 3 3 3 2 2 2 2 2 2 2 2 2 3 3 4 4 3 3 3 2 2 2 2 1 2 3 5 7 9 10 11 12 13 13 13
11 11 10 9 8 7 7 5 4 3 2 3 3 3 3 4 4 4 3 3 3 3 3 3 4 5 7 7 6 6 6 7 8 8 7 5 4 3 4 4 4 4 4 5 5 6 5 5 5 4 3 2 2 2 3 3 4 3 2 2 2 2 2 2 3 3 3 3 3 3 3 3 2 2 1 1 1 1 2 3 5 7 10 10 11 13
11 11 11 10 9 7 6 5 3 2 2 2 3 3 3 3 3 3 3 3 3 3 3 4 4 5 7 8 8 8 8 8 8 7 7 5 4 4 4 5 5 4 4 4 4 5 5 5 5 5 4 3 2 2 2 3 3 4 3 2 2 2 2 2 2 2 3 3 3 3 3 2 2 2 2 2 2 2 2 1 2 3 4 4 6 9
11 11 11 10 9 7 6 5 3 2 2 3 3 3 3 3 3 3 3 2 3 3 4 5 5 6 7 8 8 8 8 7 7 7 6 5 4 4 5 5 5 5 5 4 3 4 4 4 4 4 4 4 3 3 2 2 3 4 4 3 2 0 1 1 2 2 2 3 3 3 3 2 2 2 3 3 3 3 3 3 2 3 3 2 2 3
11 11 11 10 8 6 4 3 2 2 2 2 3 3 3 3 2 2 2 2 2 3 3 4 5 6 7 8 8 9 9 8 8 7 6 6 6 6 5 5 5 5 5 4 4 3 3 4 4 3 3 3 3 3 3 2 4 5 6 4 3 2 1 1 2 2 2 3 3 3 4 3 3 3 3 3 3 3 4 3 3 3 3 3 4 4
12 11 11 9 7 5 3 3 3 3 3 2 2 2 2 2 2 2 1 1 1 2 2 3 4 6 7 7 7 8 8 8 8 8 8 8 7 7 6 5 5 5 5 5 4 4 3 4 4 4 3 3 3 3 2 2 2 3 4 4 3 2 2 1 1 2 2 3 3 3 4 3 3 3 3 3 3 3 3 4 4 5 4 4 4 4
11 10 10 8 5 4 3 3 3 3 2 2 2 2 2 2 2 2 1 1 1 1 2 2 3 5 6 6 6 6 7 7 8 8 8 8 7 7 6 6 5 5 5 5 4 4 3 4 4 3 3 3 4 4 4 3 2 2 2 4 4 3 1 1 1 1 2 2 2 2 3 2 2 2 2 2 2 2 2 4 6 7 7 5 4 4
10 10 9 6 4 3 3 3 3 2 2 2 2 2 2 3 3 2 2 1 1 2 2 2 3 4 6 6 6 5 5 6 8 9 9 9 9 8 7 7 6 5 4 5 4 4 3 3 3 2 2 3 4 4 4 4 3 2 1 2 3 4 3 1 0 1 1 1 1 2 2 2 2 2 1 1 1 1 2 3 4 4 5 4 4 4
9 9 7 5 4 3 3 3 2 2 2 2 2 2 2 3 3 2 2 1 1 1 1 1 2 4 5 5 5 5 4 5 6 7 8 10 11 10 8 7 6 5 5 4 4 4 4 3 2 1 1 3 4 4 4 3 3 2 2 2 2 2 2 1 1 1 1 1 1 1 2 2 2 2 1 1 1 2 2 3 3 4 4 4 4 4
8 8 7 5 3 3 4 3 3 2 2 2 2 2 2 3 3 2 2 1 1 1 1 1 2 3 4 4 4 4 4 4 5 5 5 6 7 7 7 7 6 5 4 4 3 3 3 4 4 3 3 3 4 4 3 4 3 3 2 2 2 1 0 0 0 1 2 2 2 1 2 2 3 2 1 2 2 2 3 3 4 4 4 4 4 4
9 8 7 5 4 3 3 3 2 2 2 2 2 2 2 2 2 2 2 2 2 1 1 2 2 3 4 4 4 4 5 5 5 4 4 5 5 5 6 6 6 6 5 4 4 4 4 3 4 4 4 4 3 2 2 3 3 3 3 2 2 1 1 1 2 2 2 2 2 2 3 3 2 2 2 2 2 2 3 3 4 4 4 4 4 4
10 9 7 5 4 3 3 2 2 2 2 2 2 2 2 2 2 2 2 2 2 2 2 2 3 4 4 4 4 4 5 5 5 4 4 4 4 4 4 4 4 5 5 5 5 5 4 4 4 3 4 4 3 3 2 2 2 3 3 3 3 2 2 2 2 2 2 2 3 3 3 3 3 3 3 2 2 2 2 3 3 4 4 4 4 4
9 8 7 5 4 3 2 2 2 2 1 1 1 2 2 2 2 2 2 2 2 2 2 2 3 4 4 4 4 4 5 5 4 4 4 3 3 3 3 3 3 3 4 4 5 5 4 4 4 3 3 3 4 3 3 2 2 2 2 3 3 3 2 2 2 2 2 3 3 3 4 3 4 4 3 3 2 2 2 2 3 3 4 4 4 4
9 7 6 4 3 3 3 2 2 1 1 1 1 1 2 2 2 2 2 2 2 2 2 2 3 4 4 4 4 4 4 4 4 3 3 3 3 3 2 2 3 3 3 3 4 4 4 4 4 3 1 2 4 4 4 3 3 2 2 2 2 2 2 2 2 2 3 3 3 3 4 3 3 3 3 3 3 3 3 3 3 3 4 4 4 4
9 7 5 4 3 3 2 2 1 1 1 1 0 1 1 2 2 2 2 2 2 2 2 2 3 4 4 4 4 4 4 4 4 3 3 2 2 2 2 2 3 3 2 2 3 3 3 4 4 4 2 3 5 6 4 4 4 3 2 1 1 2 2 2 2 2 3 3 3 3 4 3 3 3 3 3 3 3 3 3 3 3 3 3 4 4
Wind_Direction
264 262 261 256 256 258 256 250 251 254 257 259 261 262 264 262 258 251 243 237 234 232 233 235 236 237 237 237 237 237 238 240 241 241 241 240 238 236 235 234 233 232 232 232 231 230 228 227 225 224 222 219 216 213 210 208 207 207 207 207 207 206 205 204 203 203 202 203 204 206 209 213 217 219 220 220 221 222 223 225 227 228 230 232 234 236
269 266 263 255 254 256 260 252 248 248 252 252 251 250 251 254 256 256 252 245 239 236 235 236 236 236 236 236 236 236 237 238 239 240 241 240 239 237 235 234 232 231 231 231 231 231 230 229 228 227 224 221 217 213 210 209 208 207 207 207 206 205 204 203 203 202 202 202 204 207 211 214 217 219 219 219 220 221 222 224 225 227 229 231 233 235
279 274 269 261 257 256 260 258 254 250 251 251 250 248 248 251 253 255 254 251 246 241 237 236 235 235 236 236 237 237 237 237 238 239 239 239 239 237 236 233 232 231 231 231 231 231 230 229 229 228 226 223 219 216 212 209 207 206 206 205 205 205 204 203 203 202 202 203 205 208 212 215 217 218 218 218 219 220 221 223 224 226 228 230 232 234
283 280 276 272 264 260 259 261 259 255 250 251 252 252 251 251 251 251 251 253 252 248 244 239 237 236 236 236 237 237 237 237 237 238 238 238 238 237 235 233 232 232 232 231 230 229 228 227 227 226 225 222 218 215 212 208 205 203 203 203 204 204 205 204 204 204 204 205 207 210 213 215 216 216 216 216 217 218 220 221 223 224 226 228 231 232
279 278 278 275 270 265 262 263 262 259 253 252 252 253 252 251 250 250 250 252 253 253 251 245 241 238 238 238 238 239 239 239 238 238 238 238 237 236 234 233 234 235 234 232 230 228 226 225 224 223 221 218 215 212 209 205 202 200 199 201 202 204 205 205 205 205 205 206 208 210 213 214 215 215 214 215 216 217 219 220 221 222 224 226 229 231
276 274 274 271 268 267 268 266 264 262 263 259 255 253 252 250 249 248 248 248 249 250 251 249 246 242 241 240 241 241 242 242 241 240 240 239 238 236 235 235 236 236 234 231 228 226 224 222 221 219 217 214 211 208 205 201 199 198 197 199 200 202 204 204 205 205 205 206 208 210 213 214 214 213 213 214 215 216 217 218 219 220 222 224 227 230
279 276 276 275 272 269 268 265 262 262 268 268 264 258 254 251 248 246 245 244 243 245 248 250 249 247 245 244 244 245 246 246 245 245 244 242 241 239 237 237 236 235 232 229 226 224 222 220 218 216 213 210 207 204 201 198 197 196 196 198 199 200 201 202 203 203 204 205 208 210 212 213 213 212 211 212 214 215 216 217 218 219 220 223 226 228
283 280 277 277 277 275 268 263 258 257 263 268 269 266 261 255 249 246 245 244 243 244 247 251 252 250 248 247 247 247 248 248 249 248 247 246 243 241 239 237 235 233 229 227 224 222 221 219 216 214 211 207 204 201 198 196 195 195 196 197 198 198 199 199 200 201 202 204 207 210 212 213 212 212 211 211 213 214 215 216 217 218 219 222 225 227
277 275 272 269 272 274 274 267 260 254 256 265 267 267 264 261 257 250 245 245 243 241 243 248 251 251 249 247 247 247 247 246 246 246 246 246 244 241 239 237 234 230 226 224 223 221 219 217 215 212 209 205 202 199 196 195 194 194 195 196 196 197 197 197 197 198 199 202 205 209 211 212 212 211 210 211 212 213 215 215 216 217 219 221 224 227
272 271 272 269 268 269 271 270 266 260 253 259 260 260 261 264 264 261 254 249 242 235 232 237 243 247 249 245 243 243 245 246 245 244 242 240 239 239 238 236 232 228 224 222 221 219 217 215 212 209 206 203 200 197 195 193 193 192 193 194 195 195 195 194 195 195 197 200 204 207 210 211 211 210 209 210 211 212 214 215 216 217 219 222 224 227
274 272 274 273 270 265 262 266 267 264 254 259 260 258 255 257 260 262 263 257 249 237 229 228 230 234 240 240 238 236 237 244 247 246 243 240 238 237 237 235 232 228 224 222 220 217 214 211 208 205 202 200 197 195 193 191 190 189 190 191 192 192 193 193 193 194 196 199 203 206 209 210 210 209 209 209 210 212 213 214 216 217 220 222 225 227
275 274 273 272 271 269 263 264 264 263 255 262 265 262 253 246 248 255 261 259 253 244 235 229 225 225 227 230 231 231 229 236 242 245 244 241 237 235 235 235 233 230 226 223 220 217 213 208 205 202 199 197 195 193 191 189 187 186 186 187 188 190 190 191 193 194 196 199 202 205 208 209 209 209 208 209 210 211 212 214 216 218 220 223 225 228
273 272 270 269 268 266 264 265 264 261 252 256 260 260 257 248 246 251 259 256 252 246 240 234 229 225 223 223 223 224 226 232 237 240 240 240 236 230 227 229 229 228 224 223 221 217 212 207 203 199 197 195 193 191 189 187 185 184 184 184 186 187 189 190 193 195 198 200 202 205 207 208 208 208 208 208 209 210 211 213 215 218 220 223 225 227
280 278 274 273 270 267 264 264 264 261 255 253 254 254 254 251 254 260 267 261 254 246 239 238 235 231 225 220 218 217 219 229 236 240 238 236 229 221 212 219 221 220 216 215 215 213 209 204 202 199 196 195 193 191 189 186 184 182 182 183 184 185 187 190 193 196 199 201 203 204 206 207 208 208 208 208 209 210 211 213 215 218 221 223 225 227
285 284 282 280 279 276 273 274 274 273 269 265 261 260 259 254 255 261 271 268 262 253 242 241 240 237 230 219 210 204 205 217 228 236 237 235 226 212 200 209 214 216 210 209 209 207 202 199 197 196 195 194 192 190 187 185 183 181 181 182 183 185 187 190 194 197 200 201 203 204 206 207 208 208 208 208 209 210 211 214 216 218 221 223 225 226
284 282 280 280 279 278 277 279 280 281 281 279 278 277 276 267 259 255 259 264 263 258 246 243 245 245 240 218 196 186 188 201 214 225 233 235 226 207 192 200 207 211 209 207 205 201 197 194 191 189 189 190 188 186 184 182 181 181 181 181 182 184 187 190 194 197 200 201 203 204 206 207 208 209 209 209 210 211 212 214 216 218 221 223 224 226
283 280 278 278 277 277 277 275 273 273 276 277 277 275 274 274 273 271 266 266 263 255 241 237 240 244 246 227 197 183 180 191 204 218 228 233 226 209 192 197 202 206 206 205 200 193 190 188 186 184 187 187 186 184 183 181 180 180 180 181 182 184 187 191 194 197 199 201 202 204 206 207 208 209 210 210 211 212 214 215 217 219 221 222 224 225
288 285 283 279 277 277 279 276 272 269 268 268 268 268 269 275 279 281 279 275 267 255 242 235 234 236 242 232 207 185 177 184 197 213 224 231 223 205 191 200 205 207 206 205 198 189 185 182 179 180 184 184 184 182 181 179 179 179 179 180 182 185 188 191 194 197 199 200 202 204 206 208 209 210 210 211 212 213 214 216 218 219 221 222 223 225
292 289 285 282 281 281 280 277 274 272 269 268 269 271 273 276 278 279 278 273 262 250 240 237 236 235 237 235 211 176 171 179 190 204 218 228 221 196 176 198 207 210 209 206 200 190 182 175 174 176 179 181 181 180 178 177 177 178 178 180 182 185 188 192 195 197 199 200 202 204 206 207 209 210 211 211 212 214 215 216 218 220 221 222 223 224
292 288 283 283 284 283 280 276 274 273 272 273 275 277 276 275 273 271 271 265 253 242 236 236 236 236 237 239 217 174 164 173 185 200 215 224 217 191 172 189 200 206 209 206 196 180 173 164 165 170 175 176 176 176 175 174 175 176 178 180 183 187 190 194 197 199 200 201 203 204 206 207 208 209 210 211 212 213 215 216 218 220 221 222 223 224
288 286 284 286 287 285 281 279 278 277 275 276 277 277 276 274 271 267 263 259 254 248 239 236 235 235 233 238 222 174 161 171 182 195 212 219 213 192 172 186 195 202 207 200 182 158 156 153 153 162 169 172 173 172 171 171 172 174 177 181 185 190 194 198 200 201 202 203 203 204 205 206 208 209 210 211 212 213 215 217 218 220 221 222 223 224
284 286 289 291 289 287 285 284 282 279 277 279 280 280 279 278 275 273 269 267 263 255 240 236 236 237 239 243 226 166 166 176 184 191 199 215 214 197 169 183 192 199 205 192 168 145 147 147 149 160 167 170 170 169 169 169 171 174 178 184 189 194 199 202 204 204 204 204 204 204 205 206 207 208 209 210 211 213 215 217 218 220 221 222 223 223
279 282 286 287 286 285 285 286 285 284 282 281 280 280 280 278 278 277 276 274 270 262 249 242 241 245 258 290 89 145 175 185 188 189 189 213 214 196 164 177 188 196 202 181 156 144 146 145 149 159 167 171 170 169 168 169 172 176 182 188 194 199 203 205 206 206 205 204 204 204 205 206 207 207 208 209 211 213 215 217 219 220 221 222 222 223
275 277 279 280 281 282 284 286 289 291 292 288 285 282 281 280 278 277 276 275 273 269 259 250 249 259 290 96 97 151 191 195 192 191 195 215 211 187 155 170 184 194 197 168 147 142 143 143 146 156 166 172 172 170 170 172 175 180 186 192 198 202 206 207 207 206 205 204 204 204 205 205 206 207 208 209 211 213 215 217 219 221 221 222 222 223
274 275 276 277 278 279 280 283 285 287 288 289 289 288 287 285 282 280 279 278 275 270 261 247 242 240 227 189 180 194 206 202 197 194 198 215 204 166 144 169 181 186 185 153 138 138 140 142 144 150 161 172 173 173 173 175 179 185 191 196 201 204 206 207 207 206 205 204 204 204 205 205 206 207 208 209 210 213 215 217 219 221 222 222 223 224
273 272 273 274 276 277 278 279 279 280 280 281 281 282 284 283 282 280 278 275 271 262 248 237 233 230 219 201 199 205 205 207 207 205 203 207 185 148 143 168 175 173 160 136 134 141 146 146 147 151 157 171 176 177 178 180 184 189 194 199 202 205 206 206 205 205 204 204 204 204 205 206 206 207 207 209 210 212 215 216 218 220 222 223 225 226
273 273 273 274 275 275 276 276 277 277 277 276 275 275 276 277 276 273 270 267 259 247 235 233 234 233 222 214 211 205 188 196 207 214 210 190 161 143 147 160 159 150 136 130 138 151 155 153 154 155 158 166 173 178 182 185 188 192 197 200 203 205 205 205 204 204 204 204 204 205 205 206 206 207 207 209 210 212 213 215 217 219 221 222 224 226
274 274 274 274 274 274 274 275 275 275 274 274 273 273 273 272 270 267 265 262 251 237 230 230 233 234 226 219 210 194 169 190 197 196 165 141 137 140 142 148 146 140 131 125 129 142 151 153 154 155 158 157 161 172 183 188 192 195 198 201 203 204 205 204 204 204 205 205 206 206 206 206 206 207 207 208 209 211 212 213 215 217 219 219 219 222
277 276 275 274 274 274 273 274 274 274 274 275 275 275 273 270 265 264 264 259 246 234 230 230 232 232 227 214 191 162 171 197 191 171 139 131 130 133 133 144 148 145 135 123 111 98 96 131 147 153 156 154 153 161 177 189 193 196 198 201 202 203 204 204 205 206 207 207 207 207 207 207 207 207 207 207 208 209 210 211 212 213 214 213 211 209
285 283 281 278 275 274 273 274 275 276 278 280 281 280 276 269 263 261 263 256 242 231 229 231 232 230 218 180 149 163 213 206 187 167 153 153 150 143 138 151 157 156 144 132 124 113 72 100 137 149 152 151 152 155 168 184 188 191 194 199 201 203 204 206 207 208 209 209 209 209 209 208 208 207 207 207 208 209 210 210 210 209 205 204 202 202
293 290 286 282 279 277 277 278 281 283 285 286 286 284 281 275 271 267 267 257 243 231 228 230 230 225 202 171 173 199 220 196 178 169 165 166 160 151 150 158 163 164 158 146 146 154 168 161 149 142 145 145 148 154 165 169 162 148 143 174 191 201 206 208 209 211 211 212 211 211 210 209 209 208 208 208 209 209 210 211 210 207 200 197 198 201
293 290 286 285 284 285 285 286 288 289 289 290 290 290 289 288 286 285 283 272 258 243 233 233 230 223 204 195 198 203 201 171 167 169 169 165 154 146 155 159 162 164 163 145 145 154 156 156 150 144 143 141 142 147 158 157 141 121 117 125 142 188 207 208 210 212 214 213 213 212 211 210 210 209 209 209 210 211 212 213 212 209 200 195 197 201
291 289 287 289 290 290 291 291 291 291 291 293 294 295 294 294 295 297 297 293 282 267 251 243 236 227 213 211 209 202 137 142 161 168 169 159 147 145 157 160 160 158 150 112 79 89 116 132 134 135 141 137 133 132 140 145 142 136 136 143 147 167 194 192 196 203 209 211 213 214 213 212 211 211 210 211 212 213 215 216 216 214 207 196 193 198
291 291 292 294 293 292 291 291 290 290 292 295 297 299 300 300 302 306 308 308 304 296 282 267 252 236 217 214 207 185 94 138 161 166 166 156 146 147 156 163 162 158 148 132 101 80 79 101 115 123 129 127 117 110 117 128 135 140 142 152 154 155 157 139 123 109 93 90 113 200 214 214 214 214 213 215 216 217 219 220 220 219 216 205 193 189
295 295 295 295 294 293 293 292 292 293 295 299 301 304 306 306 307 310 313 314 315 315 316 305 286 258 221 204 189 168 133 151 163 167 166 161 152 148 155 166 165 159 152 145 131 114 100 105 116 123 126 127 120 105 92 92 101 112 120 134 139 138 136 123 115 108 95 83 72 63 58 60 80 183 213 220 222 223 224 224 224 224 222 215 207 196
296 295 295 295 295 295 295 294 294 296 299 301 303 305 307 307 308 311 314 316 320 328 344 347 344 333 295 186 165 155 148 153 163 168 171 166 156 149 152 162 161 156 150 145 136 124 115 113 117 121 125 129 131 126 97 75 74 84 90 94 96 97 100 105 110 112 108 103 98 90 80 77 75 76 88 220 228 230 231 230 229 228 227 223 219 213
294 294 295 296 297 297 295 293 293 294 299 301 303 304 308 309 312 316 319 322 328 341 1 15 20 23 28 51 95 123 137 147 157 165 167 158 148 142 143 148 151 150 146 142 137 129 119 116 116 117 121 130 138 143 139 121 111 102 93 82 79 79 78 88 100 107 111 119 121 121 117 112 108 107 117 210 226 231 234 234 234 233 232 231 229 226
295 296 298 299 301 299 296 292 289 290 296 299 302 305 309 312 316 321 325 333 345 0 23 33 40 45 50 63 79 99 121 136 144 147 143 133 126 124 127 130 135 138 135 134 134 132 129 128 129 131 130 127 127 131 137 144 146 144 126 92 77 75 77 87 98 105 110 120 127 132 133 130 126 122 122 153 176 207 233 244 245 242 239 239 237 236
297 298 300 303 305 304 299 292 288 289 294 295 298 302 304 312 321 329 335 346 2 21 40 51 56 58 58 68 78 90 103 114 119 118 112 108 108 114 119 121 122 121 114 115 121 128 133 136 141 145 146 137 124 112 108 135 147 147 135 100 72 58 60 86 102 111 115 122 130 135 136 129 127 130 135 133 136 150 183 216 238 240 236 244 247 246
300 300 301 304 306 306 302 298 299 301 299 297 299 302 305 311 322 334 347 5 22 37 49 59 62 63 59 60 64 70 78 85 91 92 93 93 97 105 111 114 116 115 110 104 107 116 126 127 128 129 132 134 137 136 125 129 143 147 138 127 122 112 49 101 112 117 118 125 134 140 141 133 135 145 157 158 163 170 180 185 200 208 201 190 207 237
301 302 303 305 308 310 308 311 314 312 305 304 306 309 310 313 317 327 350 20 35 44 54 64 68 67 61 56 54 54 58 65 71 75 79 83 88 93 100 107 112 114 113 107 101 100 110 113 114 112 111 120 121 120 118 131 148 151 146 147 157 175 176 132 123 122 125 130 139 147 152 148 154 164 174 180 184 187 184 180 186 196 198 182 178 182
302 303 304 306 309 311 312 310 307 304 305 308 309 310 311 310 308 310 329 23 43 47 54 73 80 79 73 64 56 52 52 57 63 68 73 77 82 87 93 100 106 111 114 109 100 92 93 107 116 123 133 130 119 107 95 102 123 133 134 132 123 100 60 72 86 104 131 140 146 153 160 158 163 173 181 189 197 201 193 187 191 198 201 194 187 185
302 302 302 303 302 299 294 296 299 302 308 311 313 313 314 311 308 306 317 9 51 58 58 75 86 90 88 79 69 60 54 56 61 65 68 71 75 80 87 90 96 106 114 113 107 97 83 88 99 114 134 127 118 113 115 113 106 97 96 110 108 100 70 321 334 34 111 136 143 149 158 161 163 166 172 182 193 200 201 204 208 210 210 199 193 196
299 299 298 297 294 292 293 294 297 303 310 314 317 318 319 317 317 321 330 1 38 54 57 72 85 89 89 88 84 77 68 62 61 61 63 66 68 72 78 79 81 86 98 111 117 115 97 86 83 88 103 100 101 104 112 118 119 114 105 112 120 130 156 189 205 58 79 109 129 143 157 152 142 131 131 159 185 194 199 205 214 219 219 203 194 194
297 296 296 293 290 287 284 286 295 306 315 320 324 326 326 326 331 338 351 17 41 56 66 91 94 91 90 92 93 90 83 72 65 61 61 62 65 68 71 73 73 73 77 91 108 121 121 117 115 106 75 79 87 97 111 119 122 125 129 132 132 135 143 125 108 103 110 125 147 160 152 133 121 111 116 192 214 213 206 204 210 218 224 213 202 198
297 297 296 293 288 284 282 287 297 312 319 326 331 334 334 335 341 352 10 26 39 42 34 55 86 96 101 104 104 101 95 85 76 69 65 62 61 61 64 68 71 73 75 77 84 96 112 126 132 127 99 79 78 87 107 120 126 130 137 143 143 133 51 49 104 140 151 159 168 165 134 115 112 122 177 215 226 227 221 211 209 211 217 214 211 209
302 299 296 291 285 283 285 294 304 313 320 331 339 342 342 343 351 0 12 17 23 30 32 49 73 89 97 103 105 106 104 99 94 87 80 75 71 69 67 69 72 75 80 80 78 79 86 103 115 117 108 99 95 94 100 115 129 141 149 147 147 156 201 233 229 205 180 178 176 158 127 116 126 163 204 216 230 237 235 223 215 211 209 209 211 213
304 300 296 291 286 284 288 295 302 311 320 332 340 343 342 350 10 23 14 7 14 33 56 70 80 86 88 89 93 98 102 102 99 96 91 86 81 78 74 74 74 74 73 71 70 70 72 74 78 87 101 109 116 122 127 129 140 149 151 148 151 164 202 225 227 216 196 199 190 172 150 151 167 185 195 206 227 240 238 231 224 217 211 208 207 209
303 298 293 289 285 284 284 289 296 303 313 323 333 338 344 8 33 40 19 9 11 29 59 81 90 93 91 89 89 92 94 94 94 92 90 89 88 85 80 76 72 68 61 54 49 45 42 40 40 48 85 110 120 125 132 138 144 147 140 143 151 165 192 218 223 216 205 208 203 192 179 181 181 179 172 190 218 235 239 237 234 227 219 211 207 208
302 295 288 285 283 281 280 283 285 288 292 302 325 346 0 16 21 21 16 15 21 37 61 81 92 95 97 95 95 94 94 94 92 90 87 87 89 90 85 76 71 67 59 44 33 27 23 15 7 0 353 158 149 141 133 135 132 128 125 146 157 165 180 204 214 210 202 206 205 201 194 194 184 170 163 187 213 232 239 237 235 230 223 214 210 211
303 296 288 284 281 280 281 280 275 266 260 269 331 22 32 32 30 26 24 30 40 52 66 78 88 96 101 101 99 98 98 98 99 97 93 90 88 87 82 73 69 67 63 48 34 25 22 15 3 350 318 212 188 174 149 142 136 130 135 179 180 170 175 195 209 210 203 201 197 193 190 192 187 180 176 187 205 224 236 233 231 228 221 212 210 213